Location: Igri�s
(42.2144°N, 0.4320°W)
Time: 14:01:58
(UTC+00:00)

Cosmos 1802 Rocket - Pass Details

Date: 13 August 2020
Orbit: 953 x 1012 km, 82.9° (Epoch: 24 September)

Event Time Altitude Azimuth Distance (km) Brightness Sun altitude
Exits shadow 21:45:24 55° 129° (SE) 1,197 4.0 -24.8°
Maximum altitude 21:46:20 61° 93° (E) 1,135 4.1 -24.9°
Drops below altitude 10° 21:52:34 10° 15° (NNE) 2,767 6.8 -25.6°
Sets 21:55:07 0° 12° (NNE) 3,711 7.6 -25.9°
